Overview Statistics Trail Chart Weather Telemetry Raw packets
 

This is the latest recevied weather packets stored in our database for station/object KI5NYZ-13. If no packets are shown the sender has not sent any weather packets the latest 10 day(s).

<< 16 17 18 19 20 >>
Time Temp. Humidity Pressure Rain* Wind** Luminosity Snow
1787802597 28.33° C 39% 1012.1 hPa 0 mm - - -
1787800796 28.89° C 38% 1011.9 hPa 0 mm - - -
1787798995 29.44° C 37% 1011.4 hPa 0 mm - - -
1787797193 30° C 37% 1010.8 hPa 0 mm - - -
1787795393 31.67° C 34% 1009.7 hPa 0 mm - - -
1787793591 34.44° C 30% 1008.7 hPa 0 mm - - -
1787791791 35.56° C 27% 1008.3 hPa 0 mm - - -
1787789989 36.11° C 27% 1008.1 hPa 0 mm - - -
1787788188 36.11° C 25% 1008.3 hPa 0 mm - - -
1787786388 36.67° C 25% 1008.3 hPa 0 mm - - -
1787784587 36.67° C 26% 1008.4 hPa 0 mm - - -
1787782786 36.11° C 25% 1008.9 hPa 0 mm - - -
1787780984 36.11° C 26% 1009.2 hPa 0 mm - - -
1787779183 35.56° C 26% 1009.9 hPa 0 mm - - -
1787777382 35° C 28% 1010.5 hPa 0 mm - - -
1787775581 34.44° C 29% 1011.1 hPa 0 mm - - -
1787773780 34.44° C 31% 1011.6 hPa 0 mm - - -
1787771979 33.89° C 32% 1012.1 hPa 0 mm - - -
1787770179 33.89° C 31% 1012.6 hPa 0 mm - - -
1787768378 32.78° C 32% 1013.1 hPa 0 mm - - -
1787766577 32.78° C 34% 1013.5 hPa 0 mm - - -
1787764775 30° C 39% 1014.6 hPa 0 mm - - -
1787762974 29.44° C 40% 1014.8 hPa 0 mm - - -
1787761173 30° C 41% 1014.9 hPa 0 mm - - -
1787759373 27.78° C 46% 1015.3 hPa 0 mm - - -

* Rain latest hour (hover to see other rain measurements)
** Current wind speed in m/s (hover to see current wind gust speed)